Huntington, WV

6:49 PM EDT on March 23, 2017 (GMT -0400)
Tri-State / Ferguson

Weather History for KHTS - October, 2010

Change the Weather History Date:

Thursday, October 14, 2010

  Actual Average Record
Temperature  
Mean Temperature 56 °F 57 °F  
Max Temperature 65 °F 69 °F 89 °F (1954)
Min Temperature 47 °F 46 °F 25 °F (1988)
Degree Days  
Heating Degree Days 9 8  
Month to date heating degree days 76 95  
Since 1 July heating degree days 104 153  
Cooling Degree Days 0 1  
Month to date cooling degree days 10 16  
Year to date cooling degree days 1398 1127  
Growing Degree Days 6 (Base 50)    
Moisture  
Dew Point 47 °F    
Average Humidity 67    
Maximum Humidity 100    
Minimum Humidity 34    
Precipitation  
Precipitation 0.05 in 0.09 in 1.00 in (2014)
Month to date precipitation 0.77 1.23  
Year to date precipitation 34.39 34.26  
Snow  
Snow 0.00 in - - ()
Month to date snowfall 0.0  
Since 1 September snowfall 0.0  
Snow Depth 0.00 in    
Sea Level Pressure  
Sea Level Pressure 29.97 in    
Wind  
Wind Speed 7 mph (WNW)    
Max Wind Speed 16 mph    
Max Gust Speed 24 mph    
Visibility 9 miles    
Events Rain    
T = Trace of Precipitation, MM = Missing Value Source: NWS Daily Summary

Daily Weather History Graph

Daily Weather History Graph

Search for Another Location

Airport or City:

Trip Planner

Search our weather history database for the weather conditions in past years. The results will help you decide how hot, cold, wet, or windy it might be!

Date:

Astronomy

Oct. 14, 2010 Rise Set
Actual Time 7:38 AM EDT 6:53 PM EDT
Civil Twilight 7:11 AM EDT 7:20 PM EDT
Nautical Twilight 6:40 AM EDT 7:50 PM EDT
Astronomical Twilight 6:10 AM EDT 8:21 PM EDT
Moon 2:33 PM EDT (10/14) No Moon Set
Length of Visible Light 12h 08m
Length of Day
11h 15m
Waxing Crescent, 48% of the Moon is Illuminated
Oct 14
Waxing Crescent
Oct 14
First Quarter
Oct 22
Full
Oct 30
Last Quarter
Nov 6
New

Hourly Weather History & Observations

Time (EDT) Temp. Dew Point Humidity Pressure Visibility Wind Dir Wind Speed Gust Speed Precip Events Conditions
12:51 AM 57.0 °F 55.0 °F 93% 29.94 in 5.0 mi WSW 5.8 mph - 0.09 in Rain Rain
1:51 AM 55.9 °F 55.0 °F 97% 29.93 in 10.0 mi WSW 5.8 mph - 0.03 in   Mostly Cloudy
2:51 AM 55.9 °F 55.0 °F 97% 29.94 in 8.0 mi WSW 5.8 mph - N/A   Overcast
3:01 AM 55.4 °F 55.4 °F 100% 29.95 in 9.0 mi WSW 6.9 mph - N/A   Overcast
3:51 AM 57.0 °F 55.0 °F 93% 29.92 in 7.0 mi WSW 5.8 mph - N/A   Overcast
4:51 AM 57.0 °F 55.0 °F 93% 29.92 in 7.0 mi Variable 6.9 mph - N/A   Overcast
4:56 AM 57.2 °F 55.4 °F 94% 29.94 in 8.0 mi WNW 9.2 mph - N/A   Overcast
5:51 AM 57.0 °F 55.0 °F 93% 29.94 in 7.0 mi WNW 4.6 mph - N/A   Overcast
6:27 AM 57.2 °F 55.4 °F 94% 29.96 in 5.0 mi North 9.2 mph - 0.01 in Rain Rain
6:40 AM 55.4 °F 53.6 °F 94% 29.97 in 5.0 mi NNW 12.7 mph 18.4 mph 0.04 in Rain Light Rain
6:51 AM 55.9 °F 54.0 °F 93% 29.96 in 9.0 mi NNW 9.2 mph 19.6 mph 0.04 in Rain Light Rain
7:51 AM 54.0 °F 52.0 °F 93% 29.98 in 9.0 mi WNW 9.2 mph - 0.00 in   Mostly Cloudy
7:59 AM 53.6 °F 51.8 °F 94% 29.99 in 10.0 mi NW 6.9 mph - N/A   Scattered Clouds
8:43 AM 53.6 °F 50.0 °F 88% 30.01 in 10.0 mi WNW 8.1 mph - N/A   Mostly Cloudy
8:51 AM 53.1 °F 48.9 °F 86% 30.01 in 10.0 mi NNW 12.7 mph 19.6 mph N/A   Mostly Cloudy
9:42 AM 55.4 °F 48.2 °F 77% 30.03 in 10.0 mi NW 8.1 mph - N/A   Scattered Clouds
9:51 AM 55.0 °F 48.0 °F 77% 30.03 in 10.0 mi NW 11.5 mph 18.4 mph N/A   Mostly Cloudy
10:51 AM 57.9 °F 46.9 °F 67% 30.03 in 10.0 mi NNW 10.4 mph - N/A   Mostly Cloudy
10:58 AM 57.2 °F 48.2 °F 72% 30.04 in 10.0 mi NW 10.4 mph - N/A   Scattered Clouds
11:51 AM 60.1 °F 45.0 °F 57% 30.03 in 10.0 mi NNW 10.4 mph 18.4 mph N/A   Partly Cloudy
12:51 PM 62.1 °F 44.1 °F 52% 30.01 in 10.0 mi NW 5.8 mph - N/A   Mostly Cloudy
1:51 PM 62.1 °F 39.9 °F 44% 30.00 in 10.0 mi WNW 11.5 mph 18.4 mph N/A   Mostly Cloudy
2:51 PM 63.0 °F 37.9 °F 40% 29.98 in 10.0 mi WNW 9.2 mph 16.1 mph N/A   Mostly Cloudy
3:51 PM 64.0 °F 36.0 °F 35% 29.97 in 10.0 mi West 10.4 mph 20.7 mph N/A   Scattered Clouds
4:51 PM 64.9 °F 37.0 °F 36% 29.96 in 10.0 mi NNW 6.9 mph - N/A   Clear
5:51 PM 62.1 °F 34.0 °F 35% 29.95 in 10.0 mi West 10.4 mph - N/A   Clear
6:51 PM 59.0 °F 34.0 °F 39% 29.95 in 10.0 mi Calm Calm - N/A   Clear
7:51 PM 57.0 °F 33.1 °F 40% 29.96 in 10.0 mi West 3.5 mph - N/A   Clear
8:51 PM 54.0 °F 36.0 °F 51% 29.95 in 10.0 mi SSW 3.5 mph - N/A   Clear
9:51 PM 51.1 °F 37.9 °F 61% 29.94 in 10.0 mi SSW 4.6 mph - N/A   Clear
10:51 PM 48.9 °F 39.9 °F 71% 29.94 in 10.0 mi SSW 4.6 mph - N/A   Overcast
11:51 PM 48.0 °F 39.9 °F 74% 29.92 in 10.0 mi SSW 4.6 mph - N/A   Clear